This is the latest recevied weather packets stored in our database for station/object KA8OAD-10. If no packets are shown the sender has not sent any weather packets the latest 10 day(s).
| Time | Temp. | Humidity | Pressure | Rain* | Wind** | Luminosity | Snow |
|---|---|---|---|---|---|---|---|
| 1787592665 | 25° C | 50% | 1015.3 hPa | 0 mm | - | 121 W/m² | - |
| 1787592363 | 24.44° C | 51% | 1015.3 hPa | 0 mm | - | 860 W/m² | - |
| 1787591762 | 23.89° C | 50% | 1015.3 hPa | 0 mm | - | 875 W/m² | - |
| 1787591463 | 23.89° C | 53% | 1015.3 hPa | 0 mm | - | 823 W/m² | - |
| 1787591161 | 23.33° C | 51% | 1015.2 hPa | 0 mm | - | 861 W/m² | - |
| 1787590862 | 23.33° C | 50% | 1015.3 hPa | 0 mm | - | 896 W/m² | - |
| 1787590560 | 23.33° C | 53% | 1015.2 hPa | 0 mm | - | 865 W/m² | - |
| 1787589963 | 23.33° C | 53% | 1015.3 hPa | 0 mm | - | 898 W/m² | - |
| 1787589362 | 22.78° C | 54% | 1015.2 hPa | 0 mm | - | 918 W/m² | - |
| 1787589063 | 22.78° C | 55% | 1015.2 hPa | 0 mm | - | 846 W/m² | - |
| 1787588761 | 22.22° C | 55% | 1015.2 hPa | 0 mm | - | 838 W/m² | - |
| 1787588462 | 22.22° C | 55% | 1015.2 hPa | 0 mm | - | 831 W/m² | - |
| 1787587563 | 21.11° C | 60% | 1015.1 hPa | 0 mm | - | 875 W/m² | - |
| 1787587263 | 21.11° C | 60% | 1015.2 hPa | 0 mm | - | 868 W/m² | - |
| 1787586962 | 20.56° C | 62% | 1015.2 hPa | 0 mm | - | 819 W/m² | - |
| 1787586362 | 20° C | 64% | 1015.2 hPa | 0 mm | - | 838 W/m² | - |
| 1787586061 | 20° C | 64% | 1015.2 hPa | 0 mm | - | 241 W/m² | - |
| 1787585761 | 19.44° C | 67% | 1015.2 hPa | 0 mm | - | 230 W/m² | - |
| 1787585163 | 18.89° C | 68% | 1015.2 hPa | 0 mm | - | 313 W/m² | - |
| 1787584562 | 18.89° C | 68% | 1015 hPa | 0 mm | - | 105 W/m² | - |
| 1787583961 | 18.33° C | 68% | 1015 hPa | 0 mm | - | 155 W/m² | - |
| 1787583660 | 18.33° C | 69% | 1014.9 hPa | 0 mm | - | 111 W/m² | - |
| 1787583364 | 17.78° C | 70% | 1014.9 hPa | 0 mm | - | 163 W/m² | - |
| 1787582763 | 17.78° C | 72% | 1014.8 hPa | 0 mm | - | 105 W/m² | - |
| 1787582162 | 16.67° C | 74% | 1014.7 hPa | 0 mm | - | 81 W/m² | - |
* Rain latest hour (hover to see other rain measurements)
** Current wind speed in m/s (hover to see current wind gust speed)